Content
SEND FEEDBACK

Daily
Averages
Monthly
Summary
United States of America

MAYO, FLORIDA


Home > North America > United States > Florida
Elevation: 75 feet     Latitude: 30 03N     Longitude: 083 10W

WEATHER
 
SELECT A DAY
Number of Records: 170,949;   Date Range: 2/27/98 - 8/30/14
 
SHARE

PRINT THIS DATA

[ ← Previous Day ]
WEATHER ALMANAC - FEBRUARY 13, 2013
[ Next Day → ]
[ °C ]   °F
Weather ElementAverageHighLow
Temperature69.3 °F77 °F (11:53 am)57 °F (11:53 pm)
Dewpoint60 °F68 °F (1:53 am)44.1 °F (7:53 pm)
Humidity73.6 %90 % (3:53 am)45 % (7:53 pm)
Barometer29.87 in29.97 in (11:53 pm)29.82 in (3:53 am)
Wind Speed11.9 mph21.9 mph (1:53 am)
Wind Gust32.2 mph (2:53 am)
Weather ElementAverage
Wind DirectionWSW (243.9 °)

Weather ElementTotal
Precipitation---
Cooling Degree Days2 (Base 65)
Growing Degree Days17 (Base 50)
Averaged from 23 records on February 13, 2013
WEATHER CONDITIONS BREAKOUT
WIND DIRECTION BREAKOUT
WEATHER BY HOUR - FEBRUARY 13, 2013
[ °C ]   °F
Local TimeTemperatureDewpointHumidityBarometerVisibilityWind DirectionWind SpeedGust SpeedPrecipitationEventsConditions
1:53 AM72.0 °F68.0 °F87 %29.84 inSSW (210°)21.9 mph29.9 mph
2:53 AM72.0 °F68.0 °F87 %29.83 inSSW (210°)19.6 mph32.2 mph
3:53 AM71.1 °F68.0 °F90 %29.82 inSSW (210°)16.1 mph31.1 mph
4:53 AM71.1 °F68.0 °F90 %29.83 inSSW (210°)12.7 mph24.2 mph
5:53 AM71.1 °F68.0 °F90 %29.82 inSW (220°)18.4 mph
6:53 AM71.1 °F68.0 °F90 %29.84 inSSW (210°)15.0 mph
7:53 AM71.1 °F68.0 °F90 %29.85 inSW (220°)12.7 mph
8:53 AM72.0 °F68.0 °F87 %29.87 inSW (230°)12.7 mph
9:53 AM72.0 °F68.0 °F87 %29.89 inWSW (240°)12.7 mph
10:53 AM73.0 °F66.9 °F81 %29.89 inWSW (250°)13.8 mph
11:53 AM77.0 °F64.9 °F66 %29.87 inWSW (250°)9.2 mph
12:53 PM73.9 °F64.9 °F73 %29.84 inWSW (250°)6.9 mph
1:53 PM72.0 °F64.9 °F78 %29.86 inSW (220°)13.8 mph
2:53 PM70.0 °F62.1 °F76 %29.84 inSouth (190°)9.2 mph
3:53 PM70.0 °F61.0 °F73 %29.86 inWSW (250°)9.2 mph
4:53 PM69.1 °F57.9 °F68 %29.88 inWSW (250°)8.1 mph
5:53 PM66.9 °F53.1 °F61 %29.90 inWest (270°)8.1 mph
6:53 PM66.0 °F46.0 °F48 %29.89 inWNW (290°)6.9 mph
7:53 PM66.0 °F44.1 °F45 %29.91 inWNW (290°)5.8 mph
8:53 PM64.9 °F44.1 °F47 %29.93 inWest (270°)16.1 mph23.0 mph
9:53 PM63.0 °F45.0 °F52 %29.95 inWest (270°)10.4 mph
10:53 PM61.0 °F46.0 °F58 %29.94 inWNW (290°)5.8 mph
11:53 PM57.0 °F46.9 °F69 %29.97 inNW (310°)8.1 mph
Hourly data recorded from K40J, located miles away from Mayo, Florida







STORIES FROM OUR PARTNERS